Location: Unspecified
(41.1637°N, 24.2901°E)
Time: 05:51:04
(UTC+01:00)

ISS - Pass Details

Date: 03 December 2019
Orbit: 411 x 421 km, 51.6° (Epoch: 15 December)

Event Time Altitude Azimuth Distance (km) Brightness Sun altitude
Rises 17:38:54 0° 309° (NW) 2,361 0.6 -19.1°
Reaches altitude 10° 17:41:31 10° 330° (NNW) 1,499 -0.8 -19.6°
Enters shadow 17:42:48 15° 351° (N) 1,220 -1.5 -19.8°
